| time (UTC) | temp C | wind direction | speed KPH | gust KPH | rain 1hr cm | rain 24hr cm | rain mn cm | humidity % | barometer mb |
| 20260902123503 | 18 | 197 | 9.7 | 24.1 | 0.00 | 0.13 | 0.13 | 75 | 1015.6 |
| 20260902123003 | 18 | 196 | 8.0 | 17.7 | 0.00 | 0.13 | 0.13 | 77 | 1015.6 |
| 20260902122503 | 18 | 188 | 8.0 | 22.5 | 0.00 | 0.13 | 0.13 | 77 | 1015.7 |
| 20260902122003 | 18 | 186 | 8.0 | 22.5 | 0.00 | 0.13 | 0.13 | 78 | 1015.8 |
| 20260902121503 | 18 | 189 | 6.4 | 17.7 | 0.00 | 0.13 | 0.13 | 80 | 1015.8 |
| 20260902121004 | 18 | 184 | 6.4 | 16.1 | 0.00 | 0.13 | 0.13 | 81 | 1016.0 |
| 20260902120504 | 18 | 180 | 8.0 | 16.1 | 0.00 | 0.13 | 0.13 | 81 | 1016.0 |
| 20260902120003 | 18 | 179 | 6.4 | 16.1 | 0.00 | 0.13 | 0.13 | 81 | 1016.1 |
| 20260902115503 | 18 | 184 | 4.8 | 16.1 | 0.00 | 0.13 | 0.13 | 84 | 1016.2 |
| 20260902115218 | 18 | 185 | 4.8 | 16.1 | 0.00 | 0.13 | 0.13 | 85 | 1016.2 |
| 20260902114504 | 18 | 181 | 6.4 | 16.1 | 0.03 | 0.13 | 0.13 | 86 | 1016.3 |
| 20260902114218 | 17 | 177 | 6.4 | 12.9 | 0.03 | 0.13 | 0.13 | 87 | 1016.3 |
| 20260902113503 | 17 | 175 | 4.8 | 14.5 | 0.03 | 0.13 | 0.13 | 89 | 1016.3 |
| 20260902113004 | 17 | 180 | 4.8 | 12.9 | 0.05 | 0.13 | 0.13 | 89 | 1016.4 |
| 20260902112504 | 17 | 176 | 4.8 | 11.3 | 0.05 | 0.13 | 0.13 | 90 | 1016.5 |
| 20260902112003 | 17 | 177 | 4.8 | 11.3 | 0.05 | 0.13 | 0.13 | 90 | 1016.6 |
| 20260902111503 | 17 | 182 | 6.4 | 11.3 | 0.05 | 0.13 | 0.13 | 89 | 1016.7 |
| 20260902111003 | 17 | 177 | 6.4 | 14.5 | 0.05 | 0.13 | 0.13 | 89 | 1016.8 |
| 20260902110504 | 17 | 175 | 6.4 | 14.5 | 0.05 | 0.13 | 0.13 | 89 | 1016.8 |
| 20260902110218 | 17 | 175 | 6.4 | 16.1 | 0.05 | 0.13 | 0.13 | 90 | 1017.0 |
| 20260902105719 | 17 | 177 | 6.4 | 16.1 | 0.05 | 0.13 | 0.13 | 90 | 1017.0 |
| 20260902105004 | 17 | 174 | 3.2 | 8.0 | 0.05 | 0.10 | 0.10 | 91 | 1017.2 |
| 20260902104503 | 16 | 172 | 3.2 | 8.0 | 0.05 | 0.10 | 0.10 | 91 | 1017.1 |
| 20260902104003 | 16 | 173 | 4.8 | 9.7 | 0.05 | 0.10 | 0.10 | 90 | 1017.1 |
| 20260902103503 | 16 | 179 | 4.8 | 12.9 | 0.05 | 0.10 | 0.10 | 89 | 1017.2 |
| 20260902103004 | 16 | 185 | 3.2 | 12.9 | 0.05 | 0.08 | 0.08 | 89 | 1017.4 |
| 20260902102504 | 16 | 183 | 4.8 | 11.3 | 0.05 | 0.08 | 0.08 | 88 | 1017.3 |
| 20260902102003 | 16 | 188 | 3.2 | 11.3 | 0.05 | 0.08 | 0.08 | 88 | 1017.4 |
| 20260902101503 | 16 | 198 | 3.2 | 9.7 | 0.05 | 0.08 | 0.08 | 89 | 1017.4 |
| 20260902101004 | 16 | 200 | 3.2 | 9.7 | 0.03 | 0.05 | 0.05 | 88 | 1017.6 |
| 20260902100503 | 16 | 203 | 3.2 | 8.0 | 0.03 | 0.05 | 0.05 | 89 | 1017.7 |
| 20260902100003 | 16 | 194 | 3.2 | 11.3 | 0.05 | 0.05 | 0.05 | 90 | 1017.7 |
| 20260902095503 | 16 | 191 | 3.2 | 11.3 | 0.05 | 0.05 | 0.05 | 90 | 1017.7 |
| 20260902095217 | 16 | 193 | 3.2 | 8.0 | 0.05 | 0.05 | 0.05 | 91 | 1017.7 |
| 20260902094503 | 16 | 193 | 1.6 | 8.0 | 0.05 | 0.05 | 0.05 | 91 | 1017.7 |
| 20260902094004 | 16 | 194 | 1.6 | 11.3 | 0.03 | 0.05 | 0.05 | 90 | 1017.7 |
| 20260902093503 | 16 | 200 | 3.2 | 11.3 | 0.03 | 0.05 | 0.05 | 90 | 1017.6 |
| 20260902093004 | 16 | 203 | 4.8 | 14.5 | 0.05 | 0.05 | 0.05 | 90 | 1017.7 |
| 20260902092503 | 16 | 210 | 4.8 | 14.5 | 0.05 | 0.05 | 0.05 | 90 | 1017.7 |
| 20260902092003 | 16 | 211 | 3.2 | 11.3 | 0.05 | 0.05 | 0.05 | 91 | 1017.8 |
| 20260902091503 | 16 | 208 | 4.8 | 16.1 | 0.05 | 0.05 | 0.05 | 91 | 1017.8 |
| 20260902091003 | 15 | 206 | 4.8 | 16.1 | 0.05 | 0.05 | 0.05 | 91 | 1017.8 |
| 20260902090504 | 15 | 206 | 4.8 | 12.9 | 0.05 | 0.05 | 0.05 | 92 | 1017.9 |
| 20260902090004 | 15 | 210 | 4.8 | 9.7 | 0.03 | 0.03 | 0.03 | 92 | 1017.8 |
| 20260902085503 | 15 | 205 | 3.2 | 9.7 | 0.03 | 0.03 | 0.03 | 92 | 1017.8 |
| 20260902085217 | 15 | 203 | 3.2 | 11.3 | 0.03 | 0.03 | 0.03 | 92 | 1017.8 |
| 20260902084504 | 15 | 204 | 4.8 | 11.3 | 0.03 | 0.03 | 0.03 | 91 | 1017.8 |
| 20260902084004 | 15 | 208 | 3.2 | 9.7 | 0.03 | 0.03 | 0.03 | 91 | 1017.8 |
| 20260902083503 | 15 | 206 | 1.6 | 12.9 | 0.03 | 0.03 | 0.03 | 92 | 1017.7 |
| 20260902083004 | 15 | 202 | 3.2 | 12.9 | 0.00 | 0.00 | 0.00 | 91 | 1017.8 |
| 20260902082504 | 15 | 205 | 4.8 | 11.3 | 0.00 | 0.00 | 0.00 | 91 | 1017.8 |
| 20260902082004 | 15 | 203 | 3.2 | 9.7 | 0.00 | 0.00 | 0.00 | 91 | 1017.7 |
| 20260902081503 | 15 | 204 | 3.2 | 11.3 | 0.00 | 0.00 | 0.00 | 91 | 1017.6 |
| 20260902081004 | 15 | 204 | 4.8 | 11.3 | 0.00 | 0.00 | 0.00 | 91 | 1017.5 |
| 20260902080504 | 15 | 203 | 4.8 | 12.9 | 0.00 | 0.00 | 0.00 | 91 | 1017.5 |
| 20260902080217 | 15 | 202 | 4.8 | 12.9 | 0.00 | 0.00 | 0.00 | 90 | 1017.4 |
| 20260902075503 | 15 | 206 | 3.2 | 11.3 | 0.00 | 0.00 | 0.00 | 90 | 1017.3 |
| 20260902075003 | 15 | 203 | 3.2 | 9.7 | 0.00 | 0.00 | 0.00 | 90 | 1017.4 |
| 20260902074503 | 15 | 209 | 3.2 | 11.3 | 0.00 | 0.00 | 0.00 | 89 | 1017.5 |
| 20260902074004 | 15 | 208 | 4.8 | 14.5 | 0.00 | 0.00 | 0.00 | 89 | 1017.5 |
| 20260902073504 | 15 | 205 | 4.8 | 14.5 | 0.00 | 0.00 | 0.00 | 89 | 1017.5 |
| 20260902073217 | 15 | 205 | 4.8 | 16.1 | 0.00 | 0.00 | 0.00 | 88 | 1017.6 |
| 20260902072504 | 15 | 207 | 4.8 | 16.1 | 0.00 | 0.00 | 0.00 | 88 | 1017.6 |
| 20260902072004 | 15 | 211 | 3.2 | 12.9 | 0.00 | 0.00 | 0.00 | 88 | 1017.5 |
| 20260902071503 | 15 | 219 | 3.2 | 9.7 | 0.00 | 0.00 | 0.00 | 88 | 1017.5 |
| 20260902071004 | 15 | 223 | 3.2 | 9.7 | 0.00 | 0.00 | 0.00 | 88 | 1017.6 |
| 20260902070717 | 15 | 221 | 1.6 | 9.7 | 0.00 | 0.00 | 0.00 | 88 | 1017.5 |
| 20260902070006 | 14 | 205 | 0.0 | 4.8 | 0.00 | 0.00 | 0.00 | 88 | 1017.4 |
| 20260902065503 | 14 | 208 | 0.0 | 3.2 | 0.00 | 0.00 | 0.00 | 88 | 1017.3 |
| 20260902065003 | 14 | 224 | 0.0 | 3.2 | 0.00 | 0.00 | 0.00 | 87 | 1017.3 |
| 20260902064504 | 14 | 231 | 0.0 | 3.2 | 0.00 | 0.00 | 0.00 | 88 | 1017.4 |
| 20260902064218 | 14 | 227 | 0.0 | 4.8 | 0.00 | 0.00 | 0.00 | 88 | 1017.4 |
| 20260902063503 | 14 | 230 | 0.0 | 4.8 | 0.00 | 0.00 | 0.00 | 88 | 1017.4 |
| 20260902063003 | 14 | 208 | 0.0 | 6.4 | 0.00 | 0.00 | 0.00 | 88 | 1017.4 |
| 20260902062719 | 14 | 212 | 1.6 | 6.4 | 0.00 | 0.00 | 0.00 | 88 | 1017.4 |
| 20260902062004 | 14 | 218 | 1.6 | 6.4 | 0.00 | 0.00 | 0.00 | 88 | 1017.3 |
| 20260902061503 | 14 | 213 | 1.6 | 4.8 | 0.00 | 0.00 | 0.00 | 88 | 1017.3 |
| 20260902061004 | 14 | 215 | 0.0 | 4.8 | 0.00 | 0.00 | 0.00 | 88 | 1017.3 |
| 20260902060503 | 13 | 211 | 0.0 | 4.8 | 0.00 | 0.00 | 0.00 | 88 | 1017.2 |
| 20260902060004 | 13 | 215 | 0.0 | 4.8 | 0.00 | 0.00 | 0.00 | 88 | 1017.2 |
| 20260902055504 | 13 | 232 | 0.0 | 8.0 | 0.00 | 0.00 | 0.00 | 88 | 1017.2 |
| 20260902055004 | 13 | 218 | 0.0 | 8.0 | 0.00 | 0.00 | 0.00 | 88 | 1017.3 |
| 20260902054504 | 13 | 168 | 0.0 | 3.2 | 0.00 | 0.00 | 0.00 | 88 | 1017.3 |
| 20260902054003 | 13 | 175 | 0.0 | 3.2 | 0.00 | 0.00 | 0.00 | 88 | 1017.2 |
| 20260902053503 | 13 | 174 | 0.0 | 3.2 | 0.00 | 0.00 | 0.00 | 88 | 1017.2 |
| 20260902053218 | 13 | 170 | 0.0 | 3.2 | 0.00 | 0.00 | 0.00 | 88 | 1017.1 |
| 20260902052503 | 13 | 187 | 0.0 | 4.8 | 0.00 | 0.00 | 0.00 | 88 | 1017.2 |
| 20260902052004 | 13 | 162 | 0.0 | 4.8 | 0.00 | 0.00 | 0.00 | 88 | 1017.2 |
| 20260902051503 | 13 | 109 | 0.0 | 3.2 | 0.00 | 0.00 | 0.00 | 88 | 1017.2 |
| 20260902051004 | 13 | 193 | 0.0 | 3.2 | 0.00 | 0.00 | 0.00 | 88 | 1017.2 |
| 20260902050717 | 13 | 199 | 0.0 | 3.2 | 0.00 | 0.00 | 0.00 | 88 | 1017.1 |
| 20260902050007 | 13 | 194 | 0.0 | 1.6 | 0.00 | 0.00 | 0.00 | 88 | 1017.1 |
| 20260902045503 | 13 | 194 | 0.0 | 6.4 | 0.00 | 0.00 | 0.00 | 88 | 1017.1 |
| 20260902045217 | 13 | 205 | 1.6 | 8.0 | 0.00 | 0.00 | 0.00 | 87 | 1017.0 |
| 20260902044716 | 13 | 210 | 1.6 | 8.0 | 0.00 | 0.00 | 0.00 | 87 | 1017.1 |
| 20260902044003 | 13 | 214 | 0.0 | 4.8 | 0.00 | 0.00 | 0.00 | 87 | 1017.2 |
| 20260902043717 | 13 | 211 | 0.0 | 4.8 | 0.00 | 0.00 | 0.00 | 87 | 1017.2 |
| 20260902043003 | 14 | 202 | 1.6 | 4.8 | 0.00 | 0.00 | 0.00 | 87 | 1017.1 |
| 20260902042718 | 14 | 194 | 1.6 | 8.0 | 0.00 | 0.00 | 0.00 | 87 | 1017.1 |
| 20260902042004 | 14 | 202 | 1.6 | 8.0 | 0.00 | 0.00 | 0.00 | 87 | 1017.1 |
| 20260902041503 | 14 | 203 | 1.6 | 8.0 | 0.00 | 0.00 | 0.00 | 87 | 1017.2 |
| 20260902041004 | 14 | 206 | 3.2 | 12.9 | 0.00 | 0.00 | 0.00 | 87 | 1017.1 |
| 20260902040716 | 14 | 206 | 3.2 | 12.9 | 0.00 | 0.00 | 0.00 | 87 | 1017.1 |
| 20260902040004 | 14 | 201 | 3.2 | 11.3 | 0.00 | 0.00 | 0.00 | 87 | 1017.2 |
| 20260902035504 | 14 | 204 | 3.2 | 11.3 | 0.00 | 0.00 | 0.00 | 87 | 1017.2 |
| 20260902035003 | 14 | 216 | 1.6 | 9.7 | 0.00 | 0.00 | 0.00 | 87 | 1017.4 |
| 20260902034503 | 14 | 219 | 1.6 | 6.4 | 0.00 | 0.00 | 0.00 | 86 | 1017.4 |
| 20260902034219 | 14 | 209 | 1.6 | 8.0 | 0.00 | 0.00 | 0.00 | 86 | 1017.3 |
| 20260902033503 | 14 | 209 | 3.2 | 9.7 | 0.00 | 0.00 | 0.00 | 86 | 1017.3 |
| 20260902033003 | 14 | 211 | 1.6 | 9.7 | 0.00 | 0.00 | 0.00 | 86 | 1017.2 |
| 20260902032504 | 14 | 211 | 1.6 | 8.0 | 0.00 | 0.00 | 0.00 | 86 | 1017.2 |
| 20260902032003 | 14 | 210 | 1.6 | 9.7 | 0.00 | 0.00 | 0.00 | 85 | 1017.2 |
| 20260902031503 | 14 | 213 | 1.6 | 9.7 | 0.00 | 0.00 | 0.00 | 85 | 1017.3 |
| 20260902031003 | 14 | 211 | 1.6 | 9.7 | 0.00 | 0.00 | 0.00 | 85 | 1017.4 |
| 20260902030718 | 14 | 210 | 1.6 | 14.5 | 0.00 | 0.00 | 0.00 | 85 | 1017.3 |
| 20260902030004 | 14 | 216 | 3.2 | 14.5 | 0.00 | 0.00 | 0.00 | 85 | 1017.4 |
| 20260902025503 | 14 | 221 | 3.2 | 11.3 | 0.00 | 0.00 | 0.00 | 85 | 1017.4 |
| 20260902025003 | 14 | 224 | 3.2 | 9.7 | 0.00 | 0.00 | 0.00 | 85 | 1017.5 |
| 20260902024504 | 14 | 223 | 1.6 | 11.3 | 0.00 | 0.00 | 0.00 | 85 | 1017.4 |
| 20260902024219 | 14 | 231 | 1.6 | 11.3 | 0.00 | 0.00 | 0.00 | 85 | 1017.5 |
| 20260902023504 | 14 | 227 | 1.6 | 8.0 | 0.00 | 0.00 | 0.00 | 85 | 1017.7 |
| 20260902023003 | 14 | 217 | 3.2 | 9.7 | 0.00 | 0.00 | 0.00 | 85 | 1017.7 |
| 20260902022718 | 14 | 216 | 3.2 | 9.7 | 0.00 | 0.00 | 0.00 | 85 | 1017.6 |
| 20260902022217 | 14 | 208 | 1.6 | 6.4 | 0.00 | 0.00 | 0.00 | 85 | 1017.7 |
| 20260902021503 | 15 | 209 | 1.6 | 9.7 | 0.00 | 0.00 | 0.00 | 85 | 1017.7 |
| 20260902021003 | 14 | 214 | 1.6 | 8.0 | 0.00 | 0.00 | 0.00 | 84 | 1017.6 |
| 20260902020504 | 14 | 199 | 1.6 | 8.0 | 0.00 | 0.00 | 0.00 | 85 | 1017.6 |
| 20260902020217 | 15 | 195 | 3.2 | 11.3 | 0.00 | 0.00 | 0.00 | 84 | 1017.7 |
| 20260902015503 | 15 | 196 | 3.2 | 11.3 | 0.00 | 0.00 | 0.00 | 84 | 1017.7 |
| 20260902015003 | 15 | 197 | 3.2 | 9.7 | 0.00 | 0.00 | 0.00 | 84 | 1017.6 |
| 20260902014717 | 15 | 199 | 3.2 | 8.0 | 0.00 | 0.00 | 0.00 | 84 | 1017.7 |
| 20260902014218 | 15 | 205 | 1.6 | 6.4 | 0.00 | 0.00 | 0.00 | 84 | 1017.7 |
| 20260902013504 | 15 | 211 | 1.6 | 6.4 | 0.00 | 0.00 | 0.00 | 84 | 1017.7 |
| 20260902013216 | 15 | 214 | 1.6 | 6.4 | 0.00 | 0.00 | 0.00 | 84 | 1017.7 |
| 20260902012717 | 15 | 209 | 1.6 | 8.0 | 0.00 | 0.00 | 0.00 | 84 | 1017.7 |
| 20260902012004 | 15 | 208 | 1.6 | 8.0 | 0.00 | 0.00 | 0.00 | 83 | 1017.8 |
| 20260902011504 | 15 | 202 | 3.2 | 11.3 | 0.00 | 0.00 | 0.00 | 83 | 1017.8 |
| 20260902011218 | 15 | 204 | 1.6 | 11.3 | 0.00 | 0.00 | 0.00 | 83 | 1017.8 |
| 20260902010504 | 15 | 195 | 1.6 | 11.3 | 0.00 | 0.00 | 0.00 | 83 | 1017.9 |
| 20260902010003 | 15 | 203 | 3.2 | 8.0 | 0.00 | 0.00 | 0.00 | 83 | 1017.7 |
| 20260902005503 | 15 | 215 | 3.2 | 11.3 | 0.00 | 0.00 | 0.00 | 82 | 1017.8 |
| 20260902005004 | 15 | 213 | 1.6 | 11.3 | 0.00 | 0.00 | 0.00 | 82 | 1017.8 |
| 20260902004503 | 15 | 216 | 1.6 | 6.4 | 0.00 | 0.00 | 0.00 | 82 | 1017.9 |
| 20260902004218 | 15 | 217 | 1.6 | 9.7 | 0.00 | 0.00 | 0.00 | 82 | 1018.0 |
| 20260902003503 | 15 | 215 | 1.6 | 9.7 | 0.00 | 0.00 | 0.00 | 82 | 1017.9 |
| 20260902003004 | 15 | 211 | 3.2 | 12.9 | 0.00 | 0.00 | 0.00 | 82 | 1017.9 |
| 20260902002503 | 15 | 209 | 1.6 | 12.9 | 0.00 | 0.00 | 0.00 | 81 | 1018.0 |
| 20260902002003 | 15 | 222 | 1.6 | 8.0 | 0.00 | 0.00 | 0.00 | 81 | 1018.1 |
| 20260902001503 | 16 | 220 | 3.2 | 8.0 | 0.00 | 0.00 | 0.00 | 81 | 1017.9 |
| 20260902001003 | 16 | 218 | 1.6 | 8.0 | 0.00 | 0.00 | 0.00 | 81 | 1018.0 |
| 20260902000503 | 16 | 217 | 1.6 | 8.0 | 0.00 | 0.00 | 0.00 | 81 | 1017.9 |
| 20260902000219 | 16 | 217 | 1.6 | 8.0 | 0.00 | 0.00 | 0.00 | 81 | 1017.9 |
| 20260901235503 | 16 | 214 | 1.6 | 12.9 | 0.00 | 0.00 | 0.00 | 81 | 1018.0 |
| 20260901235004 | 16 | 212 | 1.6 | 12.9 | 0.00 | 0.00 | 0.00 | 81 | 1018.0 |
| 20260901234504 | 16 | 214 | 1.6 | 8.0 | 0.00 | 0.00 | 0.00 | 81 | 1017.9 |
| 20260901234003 | 16 | 216 | 1.6 | 8.0 | 0.00 | 0.00 | 0.00 | 81 | 1017.9 |
| 20260901233503 | 16 | 213 | 1.6 | 9.7 | 0.00 | 0.00 | 0.00 | 81 | 1017.9 |
| 20260901233003 | 16 | 204 | 3.2 | 11.3 | 0.00 | 0.00 | 0.00 | 81 | 1017.9 |
| 20260901232504 | 16 | 204 | 1.6 | 11.3 | 0.00 | 0.00 | 0.00 | 81 | 1018.0 |
| 20260901232003 | 16 | 207 | 1.6 | 11.3 | 0.00 | 0.00 | 0.00 | 81 | 1018.1 |
| 20260901231503 | 16 | 209 | 1.6 | 11.3 | 0.00 | 0.00 | 0.00 | 81 | 1018.1 |
| 20260901231218 | 16 | 209 | 1.6 | 11.3 | 0.00 | 0.00 | 0.00 | 81 | 1018.1 |
| 20260901230504 | 16 | 220 | 1.6 | 8.0 | 0.00 | 0.00 | 0.00 | 81 | 1018.2 |
| 20260901230004 | 16 | 221 | 3.2 | 8.0 | 0.00 | 0.00 | 0.00 | 81 | 1018.2 |
| 20260901225504 | 16 | 220 | 1.6 | 4.8 | 0.00 | 0.00 | 0.00 | 81 | 1018.2 |
| 20260901225004 | 16 | 224 | 1.6 | 12.9 | 0.00 | 0.00 | 0.00 | 81 | 1018.2 |
| 20260901224503 | 16 | 215 | 1.6 | 12.9 | 0.00 | 0.00 | 0.00 | 81 | 1018.2 |
| 20260901224003 | 16 | 209 | 1.6 | 8.0 | 0.00 | 0.00 | 0.00 | 80 | 1018.2 |
| 20260901223504 | 16 | 202 | 1.6 | 4.8 | 0.00 | 0.00 | 0.00 | 80 | 1018.2 |
| 20260901223003 | 16 | 198 | 1.6 | 4.8 | 0.00 | 0.00 | 0.00 | 80 | 1018.2 |
| 20260901222503 | 16 | 196 | 1.6 | 8.0 | 0.00 | 0.00 | 0.00 | 79 | 1018.2 |
| 20260901222219 | 16 | 198 | 1.6 | 8.0 | 0.00 | 0.00 | 0.00 | 79 | 1018.2 |
| 20260901221503 | 16 | 201 | 0.0 | 3.2 | 0.00 | 0.00 | 0.00 | 78 | 1018.2 |
| 20260901221003 | 16 | 202 | 0.0 | 3.2 | 0.00 | 0.00 | 0.00 | 78 | 1018.2 |
| 20260901220504 | 16 | 208 | 0.0 | 3.2 | 0.00 | 0.00 | 0.00 | 78 | 1018.2 |
| 20260901220004 | 17 | 213 | 0.0 | 3.2 | 0.00 | 0.00 | 0.00 | 77 | 1018.1 |
| 20260901215718 | 17 | 215 | 0.0 | 4.8 | 0.00 | 0.00 | 0.00 | 77 | 1018.2 |
| 20260901215003 | 17 | 222 | 1.6 | 8.0 | 0.00 | 0.00 | 0.00 | 77 | 1018.2 |
| 20260901214504 | 17 | 225 | 3.2 | 14.5 | 0.00 | 0.00 | 0.00 | 77 | 1018.3 |
| 20260901214004 | 17 | 226 | 1.6 | 14.5 | 0.00 | 0.00 | 0.00 | 77 | 1018.3 |
| 20260901213504 | 17 | 226 | 1.6 | 6.4 | 0.00 | 0.00 | 0.00 | 76 | 1018.3 |
| 20260901213003 | 17 | 225 | 1.6 | 8.0 | 0.00 | 0.00 | 0.00 | 76 | 1018.4 |
| 20260901212503 | 17 | 222 | 1.6 | 8.0 | 0.00 | 0.00 | 0.00 | 75 | 1018.4 |
| 20260901212003 | 17 | 221 | 0.0 | 4.8 | 0.00 | 0.00 | 0.00 | 74 | 1018.5 |
| 20260901211718 | 17 | 220 | 1.6 | 11.3 | 0.00 | 0.00 | 0.00 | 74 | 1018.4 |
| 20260901211004 | 17 | 217 | 1.6 | 11.3 | 0.00 | 0.00 | 0.00 | 74 | 1018.4 |
| 20260901210504 | 17 | 205 | 1.6 | 8.0 | 0.00 | 0.00 | 0.00 | 73 | 1018.3 |
| 20260901210003 | 17 | 220 | 1.6 | 4.8 | 0.00 | 0.00 | 0.00 | 72 | 1018.2 |
| 20260901205504 | 17 | 235 | 1.6 | 8.0 | 0.00 | 0.00 | 0.00 | 71 | 1018.4 |
| 20260901205004 | 17 | 236 | 1.6 | 12.9 | 0.00 | 0.00 | 0.00 | 71 | 1018.4 |
| 20260901204504 | 17 | 232 | 1.6 | 12.9 | 0.00 | 0.00 | 0.00 | 71 | 1018.2 |
| 20260901204004 | 17 | 228 | 1.6 | 9.7 | 0.00 | 0.00 | 0.00 | 71 | 1018.2 |
| 20260901203503 | 17 | 230 | 1.6 | 8.0 | 0.00 | 0.00 | 0.00 | 71 | 1018.3 |
| 20260901203216 | 17 | 234 | 1.6 | 8.0 | 0.00 | 0.00 | 0.00 | 72 | 1018.2 |
| 20260901202504 | 17 | 229 | 1.6 | 6.4 | 0.00 | 0.00 | 0.00 | 72 | 1018.2 |
| 20260901202003 | 17 | 224 | 0.0 | 4.8 | 0.00 | 0.00 | 0.00 | 72 | 1018.3 |
| 20260901201503 | 17 | 225 | 0.0 | 3.2 | 0.00 | 0.00 | 0.00 | 72 | 1018.2 |
| 20260901201004 | 18 | 225 | 0.0 | 3.2 | 0.00 | 0.00 | 0.00 | 71 | 1018.2 |
| 20260901200503 | 18 | 228 | 0.0 | 3.2 | 0.00 | 0.00 | 0.00 | 71 | 1018.2 |
| 20260901200003 | 18 | 229 | 0.0 | 3.2 | 0.00 | 0.00 | 0.00 | 70 | 1018.2 |
| 20260901195503 | 18 | 228 | 0.0 | 6.4 | 0.00 | 0.00 | 0.00 | 70 | 1018.1 |
| 20260901195004 | 18 | 232 | 1.6 | 6.4 | 0.00 | 0.00 | 0.00 | 70 | 1018.2 |
| 20260901194504 | 18 | 229 | 0.0 | 4.8 | 0.00 | 0.00 | 0.00 | 70 | 1018.2 |
| 20260901194218 | 18 | 235 | 0.0 | 4.8 | 0.00 | 0.00 | 0.00 | 70 | 1018.2 |
| 20260901193504 | 18 | 233 | 0.0 | 3.2 | 0.00 | 0.00 | 0.00 | 70 | 1018.3 |
| 20260901193003 | 18 | 228 | 1.6 | 6.4 | 0.00 | 0.00 | 0.00 | 70 | 1018.2 |
| 20260901192717 | 18 | 229 | 1.6 | 6.4 | 0.00 | 0.00 | 0.00 | 70 | 1018.3 |
| 20260901192218 | 18 | 234 | 1.6 | 4.8 | 0.00 | 0.00 | 0.00 | 69 | 1018.1 |
| 20260901191504 | 18 | 227 | 1.6 | 6.4 | 0.00 | 0.00 | 0.00 | 69 | 1018.1 |
| 20260901191004 | 18 | 227 | 1.6 | 6.4 | 0.00 | 0.00 | 0.00 | 69 | 1017.9 |
| 20260901190503 | 18 | 229 | 1.6 | 6.4 | 0.00 | 0.00 | 0.00 | 68 | 1017.9 |
| 20260901190004 | 18 | 244 | 1.6 | 4.8 | 0.00 | 0.00 | 0.00 | 68 | 1017.9 |
| 20260901185505 | 18 | 254 | 0.0 | 4.8 | 0.00 | 0.00 | 0.00 | 68 | 1017.7 |
| 20260901185218 | 18 | 239 | 1.6 | 6.4 | 0.00 | 0.00 | 0.00 | 68 | 1017.7 |
| 20260901184504 | 18 | 210 | 1.6 | 9.7 | 0.00 | 0.00 | 0.00 | 67 | 1017.7 |
| 20260901184004 | 19 | 199 | 1.6 | 9.7 | 0.00 | 0.00 | 0.00 | 67 | 1017.5 |
| 20260901183503 | 19 | 210 | 1.6 | 8.0 | 0.00 | 0.00 | 0.00 | 67 | 1017.6 |
| 20260901183004 | 19 | 216 | 1.6 | 8.0 | 0.00 | 0.00 | 0.00 | 66 | 1017.7 |
| 20260901182503 | 19 | 229 | 1.6 | 9.7 | 0.00 | 0.00 | 0.00 | 66 | 1017.7 |
| 20260901182004 | 19 | 216 | 3.2 | 9.7 | 0.00 | 0.00 | 0.00 | 65 | 1017.6 |
| 20260901181503 | 19 | 216 | 1.6 | 9.7 | 0.00 | 0.00 | 0.00 | 64 | 1017.6 |
| 20260901181003 | 19 | 228 | 3.2 | 8.0 | 0.00 | 0.00 | 0.00 | 65 | 1017.8 |
| 20260901180503 | 20 | 226 | 1.6 | 8.0 | 0.00 | 0.00 | 0.00 | 64 | 1017.7 |
| 20260901180004 | 20 | 219 | 1.6 | 12.9 | 0.00 | 0.00 | 0.00 | 64 | 1017.8 |
| 20260901175504 | 20 | 219 | 3.2 | 12.9 | 0.00 | 0.00 | 0.00 | 63 | 1017.7 |
| 20260901175003 | 20 | 221 | 3.2 | 11.3 | 0.00 | 0.00 | 0.00 | 63 | 1017.6 |
| 20260901174504 | 20 | 225 | 1.6 | 9.7 | 0.00 | 0.00 | 0.00 | 63 | 1017.6 |
| 20260901174006 | 20 | 227 | 1.6 | 9.7 | 0.00 | 0.00 | 0.00 | 62 | 1017.6 |
| 20260901173504 | 20 | 228 | 1.6 | 9.7 | 0.00 | 0.00 | 0.00 | 62 | 1017.7 |
| 20260901173004 | 20 | 231 | 1.6 | 11.3 | 0.00 | 0.00 | 0.00 | 62 | 1017.7 |
| 20260901172718 | 20 | 232 | 1.6 | 11.3 | 0.00 | 0.00 | 0.00 | 61 | 1017.6 |
| 20260901172003 | 20 | 234 | 1.6 | 11.3 | 0.00 | 0.00 | 0.00 | 60 | 1017.6 |
| 20260901171503 | 20 | 250 | 1.6 | 9.7 | 0.00 | 0.00 | 0.00 | 60 | 1017.6 |
| 20260901171003 | 20 | 253 | 1.6 | 9.7 | 0.00 | 0.00 | 0.00 | 59 | 1017.6 |
| 20260901170718 | 21 | 258 | 1.6 | 9.7 | 0.00 | 0.00 | 0.00 | 59 | 1017.6 |
| 20260901170004 | 21 | 261 | 1.6 | 9.7 | 0.00 | 0.00 | 0.00 | 59 | 1017.6 |
| 20260901165503 | 21 | 259 | 1.6 | 9.7 | 0.00 | 0.00 | 0.00 | 59 | 1017.5 |
| 20260901165003 | 21 | 256 | 1.6 | 12.9 | 0.00 | 0.00 | 0.00 | 60 | 1017.5 |
| 20260901164503 | 20 | 248 | 3.2 | 12.9 | 0.00 | 0.00 | 0.00 | 59 | 1017.7 |
| 20260901164004 | 20 | 244 | 3.2 | 17.7 | 0.00 | 0.00 | 0.00 | 59 | 1017.9 |
| 20260901163503 | 21 | 240 | 3.2 | 19.3 | 0.00 | 0.00 | 0.00 | 57 | 1017.6 |
| 20260901163004 | 21 | 232 | 3.2 | 19.3 | 0.00 | 0.00 | 0.00 | 57 | 1017.4 |
| 20260901162503 | 21 | 234 | 3.2 | 12.9 | 0.00 | 0.00 | 0.00 | 56 | 1017.3 |
| 20260901162217 | 21 | 235 | 3.2 | 12.9 | 0.00 | 0.00 | 0.00 | 56 | 1017.3 |
| 20260901161503 | 21 | 232 | 3.2 | 12.9 | 0.00 | 0.00 | 0.00 | 56 | 1017.4 |
| 20260901161003 | 21 | 234 | 3.2 | 12.9 | 0.00 | 0.00 | 0.00 | 56 | 1017.5 |
| 20260901160503 | 21 | 256 | 1.6 | 12.9 | 0.00 | 0.00 | 0.00 | 57 | 1017.6 |
| 20260901160004 | 21 | 282 | 1.6 | 8.0 | 0.00 | 0.00 | 0.00 | 57 | 1017.6 |
| 20260901155504 | 21 | 270 | 1.6 | 6.4 | 0.00 | 0.00 | 0.00 | 57 | 1017.6 |
| 20260901155003 | 21 | 243 | 1.6 | 8.0 | 0.00 | 0.00 | 0.00 | 57 | 1017.5 |
| 20260901154504 | 21 | 238 | 1.6 | 11.3 | 0.00 | 0.00 | 0.00 | 56 | 1017.5 |
| 20260901154003 | 21 | 247 | 3.2 | 11.3 | 0.00 | 0.00 | 0.00 | 58 | 1017.5 |
| 20260901153718 | 21 | 256 | 3.2 | 8.0 | 0.00 | 0.00 | 0.00 | 57 | 1017.6 |
| 20260901153003 | 21 | 254 | 3.2 | 11.3 | 0.00 | 0.00 | 0.00 | 57 | 1017.7 |
| 20260901152503 | 21 | 247 | 3.2 | 11.3 | 0.00 | 0.00 | 0.00 | 56 | 1017.6 |
| 20260901152003 | 21 | 249 | 3.2 | 9.7 | 0.00 | 0.00 | 0.00 | 56 | 1017.6 |
| 20260901151503 | 21 | 236 | 3.2 | 12.9 | 0.00 | 0.00 | 0.00 | 57 | 1017.7 |
| 20260901151216 | 21 | 241 | 3.2 | 12.9 | 0.00 | 0.00 | 0.00 | 57 | 1017.8 |
| 20260901150504 | 20 | 267 | 1.6 | 12.9 | 0.00 | 0.00 | 0.00 | 58 | 1017.8 |
| 20260901150003 | 20 | 247 | 1.6 | 9.7 | 0.00 | 0.00 | 0.00 | 58 | 1017.9 |
| 20260901145504 | 20 | 243 | 3.2 | 16.1 | 0.00 | 0.00 | 0.00 | 59 | 1017.9 |
| 20260901145003 | 20 | 240 | 3.2 | 16.1 | 0.00 | 0.00 | 0.00 | 59 | 1017.9 |
| 20260901144504 | 20 | 229 | 1.6 | 9.7 | 0.00 | 0.00 | 0.00 | 57 | 1017.9 |
| 20260901144004 | 21 | 236 | 1.6 | 9.7 | 0.00 | 0.00 | 0.00 | 57 | 1017.8 |
| 20260901143503 | 21 | 245 | 1.6 | 11.3 | 0.00 | 0.00 | 0.00 | 57 | 1017.7 |
| 20260901143004 | 21 | 229 | 1.6 | 11.3 | 0.00 | 0.00 | 0.00 | 56 | 1017.8 |
| 20260901142504 | 21 | 241 | 1.6 | 9.7 | 0.00 | 0.00 | 0.00 | 56 | 1018.0 |
| 20260901142003 | 21 | 256 | 1.6 | 9.7 | 0.00 | 0.00 | 0.00 | 56 | 1017.9 |
| 20260901141503 | 21 | 233 | 1.6 | 8.0 | 0.00 | 0.00 | 0.00 | 56 | 1017.8 |
| 20260901141218 | 21 | 223 | 1.6 | 8.0 | 0.00 | 0.00 | 0.00 | 56 | 1017.8 |
| 20260901140504 | 21 | 228 | 1.6 | 9.7 | 0.00 | 0.00 | 0.00 | 56 | 1017.8 |
| 20260901140004 | 21 | 230 | 3.2 | 16.1 | 0.00 | 0.00 | 0.00 | 55 | 1017.9 |
| 20260901135504 | 21 | 248 | 3.2 | 17.7 | 0.00 | 0.00 | 0.00 | 56 | 1017.8 |
| 20260901135003 | 21 | 237 | 3.2 | 17.7 | 0.00 | 0.00 | 0.00 | 56 | 1017.9 |
| 20260901134504 | 21 | 224 | 3.2 | 12.9 | 0.00 | 0.00 | 0.00 | 56 | 1018.1 |
| 20260901134003 | 21 | 217 | 3.2 | 12.9 | 0.00 | 0.00 | 0.00 | 56 | 1017.8 |
| 20260901133503 | 21 | 215 | 4.8 | 17.7 | 0.00 | 0.00 | 0.00 | 56 | 1017.9 |
| 20260901133218 | 21 | 215 | 4.8 | 17.7 | 0.00 | 0.00 | 0.00 | 55 | 1017.9 |
| 20260901132503 | 21 | 227 | 4.8 | 14.5 | 0.00 | 0.00 | 0.00 | 54 | 1018.0 |
| 20260901132218 | 22 | 231 | 4.8 | 14.5 | 0.00 | 0.00 | 0.00 | 53 | 1017.9 |
| 20260901131503 | 21 | 246 | 3.2 | 12.9 | 0.00 | 0.00 | 0.00 | 55 | 1017.9 |
| 20260901131003 | 21 | 230 | 3.2 | 14.5 | 0.00 | 0.00 | 0.00 | 56 | 1018.0 |
| 20260901130503 | 21 | 228 | 3.2 | 14.5 | 0.00 | 0.00 | 0.00 | 55 | 1018.0 |
| 20260901130003 | 21 | 242 | 3.2 | 11.3 | 0.00 | 0.00 | 0.00 | 55 | 1018.2 |
| 20260901125719 | 21 | 236 | 3.2 | 12.9 | 0.00 | 0.00 | 0.00 | 55 | 1018.1 |
| 20260901125003 | 22 | 238 | 3.2 | 12.9 | 0.00 | 0.00 | 0.00 | 55 | 1018.1 |
| 20260901124503 | 21 | 238 | 1.6 | 11.3 | 0.00 | 0.00 | 0.00 | 57 | 1018.1 |
| 20260901124004 | 21 | 236 | 3.2 | 14.5 | 0.00 | 0.00 | 0.00 | 56 | 1018.1 |